Regional Weather Roundup
Issued by NWS

Home | Current Version | Previous Version | Graphics & Text | Print | Product List | Glossary On
Versions: 1 2 3 4 5 6 7 8 9 10 11 12 13 14 15 16 17 18 19 20 21 22 23 24 25 26 27 28 29 30 31 32 33 34 35 36 37 38 39 40 41 42 43 44 45 46 47 48 49 50
027
ASUS44 KJAN 222110
RWRMS

MISSISSIPPI HOURLY WEATHER ROUNDUP
NATIONAL WEATHER SERVICE JACKSON MS
400 PM CDT MON SEP 22 2014

NOTE: "FAIR: INDICATES FEW OR NO CLOUDS BELOW 12,000 FEET WITH NO
SIGNIFICANT WEATHER AND/OR OBSTRUCTIONS TO VISIBILITY.

MSZ001>002-007>008-010>013-018>021-025>028-034>036-222200-
NORTHWEST MISSISSIPPI

CITY           SKY/WX    TMP DP  RH WIND       PRES   REMARKS
CLARKSDALE     FAIR      79  54  41 N13G18    30.15F
CLEVELAND      FAIR      80  53  39 N9        30.12S
GREENWOOD      SUNNY     81  54  39 N14       30.10F
GREENVILLE     SUNNY     83  49  30 N14G26    30.10F
GRENADA        FAIR      77  52  41 N7        30.13S
OLIVE BRANCH   SUNNY     75  54  46 NE10      30.17F
OXFORD         FAIR      75  50  41 N12       30.16F
TUNICA         CLEAR     77  52  41 N13       30.16F
$$

MSZ003>006-009-014>017-022>024-029>033-037>039-222200-
NORTHEAST MISSISSIPPI

CITY           SKY/WX    TMP DP  RH WIND       PRES   REMARKS
COLUMBUS AFB   SUNNY     80  51  36 N13       30.08F
CORINTH        FAIR      77  50  38 N9G16     30.14S
GOLDN TRIANGLE SUNNY     81  54  39 NE15      30.09F
STARKVILLE     FAIR      79  48  34 NE10G17   30.09S
TUPELO         SUNNY     77  50  38 NE14      30.13S
$$

MSZ040-058-222200-
CENTRAL MISSISSIPPI

CITY           SKY/WX    TMP DP  RH WIND       PRES   REMARKS
JACKSON INTL   SUNNY     83  50  31 N12       30.07F
JACKSON HAWKNS SUNNY     84  51  31 N8        30.07F
MERIDIAN KEY   SUNNY     82  49  31 N16       30.04F
MERIDIAN NAS   SUNNY     83  48  29 N13       30.06F
RAYMOND        FAIR      82  77  83 N6        30.07F HX  91
VICKSBURG      SUNNY     85  50  29 N14       30.08F
$$

MSZ059>079-222200-
SOUTH MISSISSIPPI

CITY           SKY/WX    TMP DP  RH WIND       PRES   REMARKS
BROOKHAVEN     FAIR      82  54  36 N10       30.06F
COLUMBIA       FAIR      84  55  37 NE12      30.01R
HATTIESBURG    SUNNY     86  55  34 N10       30.01F
MCCOMB         SUNNY     86  54  33 NE13G18   30.03S
NATCHEZ        SUNNY     82  57  42 N13G18    30.06F
PINE BELT      SUNNY     86  54  32 N14G21    30.04S
$$

MSZ080>082-222200-
COASTAL MISSISSIPPI

CITY           SKY/WX    TMP DP  RH WIND       PRES   REMARKS
BAY ST LOUIS   MOSUNNY  N/A N/A N/A N9        29.97F
BILOXI         MOSUNNY   85  72  64 NE12      29.97F HX  91
PASCAGOULA     MOSUNNY   87  71  58 N10       29.97S HX  93
GULFPORT       MOSUNNY   87  71  58 N13       29.96F HX  93
$$



USA.gov is the U.S. government's official web portal to all federal, state and local government web resources and services.